UNISAT 3

Satellite information

Favourite Embed

Satellite Type and Status

PAYLOADIN ORBIT

Key statistics

Satellite UNISAT 3 at a glance.

Uptime

7837

Days in orbit

Revolutions

≈ 14.5

Per day

Orbit

SSO

Sun Synchronous Orbit

Inclination

98.7

Latest

Satellite identification and parameters

Extended collection of information and parameters for UNISAT 3.

Object identification

Identified? True

Debris? False

Object name: UNISAT 3

International designator: 2004-025H

Object number (NORAD): 28373

Object ID (CCSDS): 28373

Country: ITALY (IT)

Current information (Y/N): Y

RCS size: MEDIUM

Orbital parameters

Period: 99.39 minutes

Inclination: 98.6936 deg

SMA: 7107.59 km

Apoapsis: 775.72 km

Periapsis: 683.191 km

RAAN: 345.5211 deg

Eccentricy: 0.00650913

Argument of periapsis: 196.0522 deg

Mean anomaly: 163.8609 deg

Mean motion: 14.48835843 rev/day

Mean motion (dot): 0.00000882 rev/day2

B* drag term: 0.00024011643 1/REarth

Two-line elements (TLE)

Creation date: Dec. 12, 2025, 10:14 a.m.

Reference frame: TEME

Reference center: EARTH

Epoch: Dec. 12, 2025, 7:02 a.m. UTC

TLE line 0: 0 UNISAT 3

TLE line 1: 1 28373U 04025H 25346.29338649 .00000882 00000-0 24012-3 0 9998

TLE line 2: 2 28373 98.6936 345.5211 0065091 196.0522 163.8609 14.48835843131986

Live tracking on map

Real-time ground track for satellite UNISAT 3.

In-orbit conjunctions

There are no conjunctions computed for UNISAT 3, at the moment. Check back to stay up to date, as we update our databases every day.

Go to all conjunctions

Associated space launch

AprizeSat, is a constellation of small Low-Earth-Orbit satellites (64 satellites planned) to achieve a global communication system of data transmission and fixed and mobile asset tracking and monitoring (GMPCS).

UNISAT 3 was lifted into orbit during the mission ‘Dnepr | Aprizesat-2’, on board a Dnepr space rocket.

The launch took place on June 29, 2004, 6:30 a.m. from 109/95.

For more information about the launch, click the button.

Launch to space Dnepr | Aprizesat-2
Dnepr | Aprizesat-2

Agency: N/A

Status: Launch Successful

Launch date: June 29, 2004, 6:30 a.m. UTC

Rocket: Dnepr

Launch pad: 109/95

Location: Baikonur Cosmodrome, Republic of Kazakhstan

...

Latest news about this satellite

There are no fresh news available about this satellite. Check back as we update our databases every day.


Newsletter sign-up

Weekly statistics, charts and insights to help you stay on top of the space industry.